sat.trackr.live / text

‹ back to catalog

STARLINK-31611

NORAD 59325 · 2024-057F

PAYLOAD ACTIVE UNKNOWN

§ Identity

Operator
Country
US
Launch date
2024-03-25
Launch site
AFETR
Launch vehicle
Mass (kg)
RCS (m²)

Purposes: comms

External: N2YO · Heavens-Above · Gunter

§ Orbital elements

Epoch: 2026-05-25T04:29:33.701568Z

Period
94.27 min
Inclination
43.0033°
Eccentricity
0.0001354
Mean motion
15.27579989 rev/d
Perigee alt
482.1 km
Apogee alt
484.0 km
Semi-major
6,861.2 km
B*
-4.0995e-5
RAAN
115.4650°
Arg perigee
272.3021°
Mean anomaly
87.7675°
Rev number
12,153

§ Raw data

STARLINK-316111 59325U 24057F   26145.18719562 -.00001390  00000+0 -40995-4 0  99942 59325  43.0033 115.4650 0001354 272.3021  87.7675 15.27579989121535

JSON: /api/v1/satellites/59325 · /tle

For live sub-satellite position, see the globe view (requires WebGL).

§ Visibility from observer

Set your observer location to see the next 7 days of passes ≥ 10°. The values pass through the URL so the page stays shareable.

No JS? Fill the form by hand. The geolocation button needs JavaScript.